Location: Basse Occidentale du Courleau
(48.3833°N, 4.8333°W)
Time: 09:58:33
(UTC+00:00)

BREEZE-M DEB (TANK) - Pass Details

Date: 05 July 2020
Orbit: 328 x 12049 km, 49.6° (Epoch: 07 August)

Event Time Altitude Azimuth Distance (km) Brightness Sun altitude
Rises 22:28:55 0° 277° (W) 4,849 7.4 -14.4°
Reaches altitude 10° 22:33:24 10° 279° (W) 2,761 6.2 -14.7°
Maximum altitude 22:38:38 76° 6° (N) 504 2.0 -15.1°
Enters shadow 22:40:37 16° 91° (E) 1,087 3.4 -15.3°
